User: anonymous   Login
Location: Unspecified
(48.7670°N, 0.0000°E)
Time: 22:43:27
(UTC+00:00)
Language:

Vanguard 1 - Orbit

View from above orbital plane
View from above orbital plane
View from above satellite
View from above satellite

Ground track
Ground track

The orbit data is extracted from the following two-line orbital elements,

1     5U 58002B   19165.67809516 -.00000047 +00000-0 -50312-4 0  9992
2     5 034.2442 284.1620 1841951 132.9905 244.0555 10.84762398165204
Epoch (UTC): 14 June 2019 16:16:27
Eccentricity: 0.1841951
inclination: 34.2442°
perigee height: 654 km
apogee height: 3830 km
right ascension of ascending node: 284.1620°
argument of perigee: 132.9905°
revolutions per day: 10.84762398
mean anomaly at epoch: 244.0555°
orbit number at epoch: 16520

The dashed part of the orbit path shows where the satellite is in the earth's shadow,  

DLR